Location: Newark
(43.6583°N, 1.6617°E)
Time: 07:08:20
(UTC+00:00)

Transit 4A - Pass Details

Date: 25 August 2019
Orbit: 865 x 980 km, 66.8° (Epoch: 16 September)

Event Time Altitude Azimuth Distance (km) Brightness Sun altitude
Rises 03:10:37 0° 322° (NW) 3,622 11.0 -19.8°
Reaches altitude 10° 03:13:22 10° 315° (NW) 2,656 10.2 -19.4°
Maximum altitude 03:18:57 38° 250° (WSW) 1,380 8.3 -18.6°
Enters shadow 03:21:50 24° 201° (SSW) 1,789 8.9 -18.2°
Drops below altitude 10° 03:24:23 10° 184° (S) 2,566 - -17.8°
Sets 03:27:00 0° 176° (S) 3,486 - -17.4°
